User: anonymous   Login
Location: Alexandria
(38.8050°N, 77.0470°W)
Time: 09:48:27
(UTC-04:00)
Language:

Hubble Space Telescope - Orbit

View from above orbital plane
View from above orbital plane
View from above satellite
View from above satellite

Ground track
Ground track

The orbit data is extracted from the following two-line orbital elements,

1 20580U 90037B   18139.88348951  .00000459  00000-0  17161-4 0  9990
2 20580  28.4696 302.2109 0002662 191.9902 292.7405 15.09039535341193
Epoch (UTC): 19 May 2018 21:12:13
Eccentricity: 0.0002662
inclination: 28.4696°
perigee height: 537 km
apogee height: 541 km
right ascension of ascending node: 302.2109°
argument of perigee: 191.9902°
revolutions per day: 15.09039535
mean anomaly at epoch: 292.7405°
orbit number at epoch: 34119

The dashed part of the orbit path shows where the satellite is in the earth's shadow,  

DLR